TimeMDT,TemperatureF,Dew PointF,Humidity,Sea Level PressureIn,VisibilityMPH,Wind Direction,Wind SpeedMPH,Gust SpeedMPH,PrecipitationIn,Events,Conditions,WindDirDegrees,DateUTC
12:00 AM,21,20,94,29.70,,North,3.5,,,,,350,2013-09-07 06:00:00
12:00 AM,20.7,20.1,98,29.70,-9999.0,NNW,2.3,-,N/A,,Unknown,340,2013-09-07 06:00:00
1:00 AM,20.8,20.1,97,29.71,-9999.0,NNW,2.3,-,N/A,,Unknown,340,2013-09-07 07:00:00
2:00 AM,21.4,20.7,97,29.71,-9999.0,Calm,Calm,-,N/A,,Unknown,0,2013-09-07 08:00:00
3:00 AM,22.3,21.6,97,29.71,-9999.0,Calm,Calm,-,N/A,,Unknown,0,2013-09-07 09:00:00
4:00 AM,24.4,24.1,99,29.72,-9999.0,NNW,2.3,-,N/A,,Unknown,330,2013-09-07 10:00:00
5:00 AM,26.8,26.4,99,29.71,-9999.0,NNW,2.3,-,0.01,,Unknown,330,2013-09-07 11:00:00
6:00 AM,28,28,97,29.71,,NNW,15.0,,,,,340,2013-09-07 12:00:00
6:00 AM,27.9,27.7,99,29.71,-9999.0,NNW,15.0,-,N/A,,Unknown,340,2013-09-07 12:00:00
7:00 AM,27.7,27.1,98,29.70,-9999.0,NNW,20.7,-,N/A,,Unknown,340,2013-09-07 13:00:00
8:00 AM,26.6,26.1,98,29.70,-9999.0,NNW,23.0,-,0.01,,Unknown,340,2013-09-07 14:00:00
9:00 AM,25.9,25.3,98,29.70,-9999.0,NNW,24.2,-,N/A,,Unknown,340,2013-09-07 15:00:00
10:00 AM,26.4,25.9,98,29.70,-9999.0,NNW,26.5,-,0.01,,Unknown,340,2013-09-07 16:00:00
3:00 PM,26.6,26.4,99,-9999,-9999.0,NNW,23.0,-,N/A,,Unknown,340,2013-09-07 21:00:00
4:00 PM,26.4,26.1,99,29.76,-9999.0,North,27.6,-,0.01,,Unknown,350,2013-09-07 22:00:00
5:00 PM,26.8,26.4,99,29.78,-9999.0,North,24.2,-,N/A,,Unknown,350,2013-09-07 23:00:00
6:00 PM,27,27,98,29.78,,North,25.3,,,,,350,2013-09-08 00:00:00
6:00 PM,27.0,26.8,99,29.78,-9999.0,North,27.6,-,N/A,,Unknown,350,2013-09-08 00:00:00
7:00 PM,27.5,27.1,99,29.79,-9999.0,North,27.6,-,N/A,,Unknown,360,2013-09-08 01:00:00
8:00 PM,28.8,28.6,99,29.78,-9999.0,NNW,34.5,40.3,N/A,,Unknown,340,2013-09-08 02:00:00
9:00 PM,28.6,28.4,99,29.81,-9999.0,North,29.9,-,N/A,,Unknown,350,2013-09-08 03:00:00
10:00 PM,27.3,27.1,99,29.80,-9999.0,North,33.4,-,0.01,,Unknown,360,2013-09-08 04:00:00
11:00 PM,28.2,28.0,99,-9999,-9999.0,North,35.7,-,0.01,,Unknown,0,2013-09-08 05:00:00